Location: Rancho Penasquitos
(32.9595°N, 117.1153°W)
Time: 12:07:20
(UTC+00:00)

Cosmos 1633 Rocket - Visible Passes

Search period start: 08 December 2022 00:00
Search period end: 18 December 2022 00:00
Orbit: 607 x 621 km, 82.5° (Epoch: 07 December)

Date Brightness Start Highest point End Pass type
(mag) Time Alt. Az. Time Alt. Az. Time Alt. Az.
11 Dec 3.4 02:50:21 59° SSW 02:50:21 59° SSW 02:54:01 10° S visible
12 Dec 4.7 01:25:13 10° NE 01:27:37 14° ENE 01:30:00 10° ESE visible
12 Dec 4.5 03:01:27 10° NNW 03:05:29 36° W 03:09:29 10° SSW visible
12 Dec 6.5 13:53:05 10° E 13:54:02 11° E 13:55:01 10° ENE visible
13 Dec 4.0 01:39:58 10° NNE 01:43:41 26° ENE 01:47:23 10° SE visible
13 Dec 5.6 03:18:07 10° NW 03:21:12 19° W 03:24:19 10° SW visible
13 Dec 5.9 14:06:27 10° SE 14:09:42 21° E 14:12:59 10° NE visible
14 Dec 3.1 01:55:23 10° N 01:59:41 51° E 02:03:56 10° SSE visible
15 Dec 3.1 02:11:10 10° N 02:15:34 80° W 02:19:56 10° S visible
16 Dec 4.4 02:27:17 10° NNW 02:31:24 40° W 02:35:28 10° SSW visible
17 Dec 4.1 01:05:59 10° NNE 01:09:34 24° ENE 01:13:07 10° SE visible
17 Dec 5.6 02:43:51 10° NW 02:47:08 21° W 02:50:25 10° SW visible
17 Dec 6.0 13:32:34 10° SE 13:35:38 19° E 13:38:43 10° NE visible
